Voltar ao catálogo

THOR 3

AtivoComunicaçõesGEO
NORAD 25358·PAYLOAD·🇳🇴 Norway

Lançado Jun 10, 1998 de Cape Canaveral Space Force Station

Loading…

TLE

AtualizadoSource: Space-Track

Época: Sep 14, 2026, 08:20 UTC

1 25358U 98035A   26257.34743833 -.00000123  00000-0  00000-0 0  9992
2 25358  11.9623  38.2365 0005534 186.9217 183.6155  0.98828440103371

Acompanhe THOR 3 em tempo real com AllMySat

Download on the App Store